CMP2204 KMCO-KMIA

Flight info

Callsign CMP2204
Flight time 0h 41m
Altitude 23000
Route DDANY3 DDANY CSTAL2
Aircraft B38M/M-SDE1FGHILORVWXY/HB1

Departure

Time 2026-04-22 19:56
Airport Orlando International Airport (KMCO)

Arrival

Time 2026-04-22 20:37
Airport Miami International Airport (KMIA)
Time Latitude Longitude Altitude Speed Heading
2026-04-22 19:29 28.41228 -81.31707 97 ft 0 kts 180°
2026-04-22 19:42 28.41240 -81.31707 98 ft 2 kts 180°
2026-04-22 19:42 28.41256 -81.31707 97 ft 2 kts 181°
2026-04-22 19:42 28.41273 -81.31706 97 ft 2 kts 182°
2026-04-22 19:42 28.41289 -81.31705 96 ft 2 kts 184°
2026-04-22 19:43 28.41321 -81.31698 96 ft 2 kts 211°
2026-04-22 19:43 28.41330 -81.31685 95 ft 1 kts 267°
2026-04-22 19:43 28.41330 -81.31681 95 ft 0 kts 270°
2026-04-22 19:46 28.41330 -81.31685 95 ft 2 kts 270°
2026-04-22 19:46 28.41330 -81.31711 95 ft 5 kts 270°
2026-04-22 19:46 28.41330 -81.31760 97 ft 7 kts 274°
2026-04-22 19:47 28.41348 -81.31800 99 ft 5 kts 327°
2026-04-22 19:47 28.41387 -81.31804 101 ft 7 kts 359°
2026-04-22 19:47 28.41442 -81.31796 100 ft 9 kts 11°
2026-04-22 19:47 28.41513 -81.31791 101 ft 11 kts 358°
2026-04-22 19:48 28.41601 -81.31791 100 ft 14 kts 360°
2026-04-22 19:48 28.41707 -81.31792 101 ft 16 kts 360°
2026-04-22 19:48 28.41828 -81.31792 102 ft 19 kts 360°
2026-04-22 19:48 28.41965 -81.31794 102 ft 21 kts
2026-04-22 19:49 28.42116 -81.31789 101 ft 23 kts
2026-04-22 19:49 28.42243 -81.31765 101 ft 12 kts 30°
2026-04-22 19:49 28.42266 -81.31669 100 ft 14 kts 88°
2026-04-22 19:49 28.42267 -81.31543 99 ft 17 kts 89°
2026-04-22 19:50 28.42268 -81.31396 98 ft 20 kts 89°
2026-04-22 19:50 28.42264 -81.31230 97 ft 22 kts 96°
2026-04-22 19:50 28.42237 -81.31051 97 ft 24 kts 98°
2026-04-22 19:50 28.42240 -81.30860 97 ft 25 kts 85°
2026-04-22 19:51 28.42254 -81.30661 99 ft 25 kts 85°
2026-04-22 19:51 28.42269 -81.30453 97 ft 27 kts 85°
2026-04-22 19:51 28.42276 -81.30231 97 ft 29 kts 89°
2026-04-22 19:51 28.42278 -81.30001 97 ft 29 kts 89°
2026-04-22 19:52 28.42281 -81.29841 97 ft 17 kts 89°
2026-04-22 19:52 28.42304 -81.29709 97 ft 18 kts 36°
2026-04-22 19:52 28.42421 -81.29701 97 ft 18 kts 359°
2026-04-22 19:52 28.42554 -81.29702 98 ft 20 kts 360°
2026-04-22 19:53 28.42703 -81.29703 99 ft 22 kts 359°
2026-04-22 19:53 28.42864 -81.29705 100 ft 24 kts 359°
2026-04-22 19:53 28.43037 -81.29705 100 ft 26 kts
2026-04-22 19:53 28.43225 -81.29709 101 ft 28 kts 360°
2026-04-22 19:54 28.43378 -81.29710 98 ft 22 kts 358°
2026-04-22 19:54 28.43502 -81.29713 99 ft 12 kts 359°
2026-04-22 19:54 28.43548 -81.29646 98 ft 13 kts 84°
2026-04-22 19:54 28.43510 -81.29588 101 ft 10 kts 176°
2026-04-22 19:55 28.43429 -81.29587 100 ft 15 kts 179°
2026-04-22 19:55 28.43214 -81.29584 101 ft 57 kts 179°
2026-04-22 19:55 28.42611 -81.29578 97 ft 114 kts 179°
2026-04-22 19:55 28.41651 -81.29566 106 ft 160 kts 179°
2026-04-22 19:56 28.40506 -81.29525 525 ft 171 kts 173°
2026-04-22 19:56 28.39304 -81.29446 1282 ft 171 kts 173°
2026-04-22 19:56 28.38201 -81.29072 1979 ft 165 kts 142°
2026-04-22 19:56 28.37220 -81.28360 2625 ft 176 kts 146°
2026-04-22 19:57 28.36114 -81.27603 3169 ft 191 kts 144°
2026-04-22 19:57 28.35152 -81.26537 3650 ft 207 kts 117°
2026-04-22 19:57 28.34689 -81.24893 4055 ft 232 kts 101°
2026-04-22 19:57 28.34332 -81.23022 4611 ft 253 kts 102°
2026-04-22 19:58 28.33963 -81.21022 5401 ft 260 kts 102°
2026-04-22 19:58 28.33603 -81.19009 6351 ft 262 kts 101°
2026-04-22 19:58 28.33238 -81.16938 7096 ft 273 kts 101°
2026-04-22 19:58 28.32869 -81.14807 8009 ft 275 kts 101°
2026-04-22 19:59 28.32499 -81.12656 8854 ft 281 kts 101°
2026-04-22 20:00 28.30028 -80.98233 12627 ft 344 kts 102°
2026-04-22 20:00 28.29563 -80.95533 13341 ft 352 kts 102°
2026-04-22 20:01 28.29091 -80.92787 14134 ft 358 kts 102°
2026-04-22 20:01 28.28609 -80.89982 14815 ft 365 kts 102°
2026-04-22 20:01 28.28118 -80.87139 15536 ft 370 kts 102°
2026-04-22 20:01 28.27328 -80.84349 16262 ft 374 kts 115°
2026-04-22 20:02 28.26314 -80.81606 16908 ft 382 kts 113°
2026-04-22 20:02 28.25301 -80.78792 17594 ft 387 kts 113°
2026-04-22 20:02 28.24274 -80.75937 18232 ft 394 kts 113°
2026-04-22 20:02 28.23231 -80.73039 18844 ft 400 kts 113°
2026-04-22 20:03 28.21981 -80.70225 19450 ft 400 kts 128°
2026-04-22 20:03 28.20068 -80.67965 20053 ft 397 kts 147°
2026-04-22 20:03 28.17658 -80.66486 20610 ft 394 kts 165°
2026-04-22 20:03 28.15037 -80.65574 21141 ft 396 kts 167°
2026-04-22 20:04 28.12372 -80.64699 21718 ft 400 kts 168°
2026-04-22 20:04 28.09680 -80.63851 22301 ft 403 kts 169°
2026-04-22 20:04 28.06963 -80.63015 22871 ft 407 kts 169°
2026-04-22 20:04 28.04217 -80.62183 23430 ft 410 kts 169°
2026-04-22 20:05 28.01449 -80.61350 23949 ft 414 kts 169°
2026-04-22 20:05 27.98681 -80.60522 24158 ft 421 kts 169°
2026-04-22 20:05 27.95817 -80.59663 24165 ft 427 kts 169°
2026-04-22 20:05 27.92929 -80.58799 24187 ft 429 kts 169°
2026-04-22 20:06 27.90071 -80.57943 23933 ft 423 kts 169°
2026-04-22 20:06 27.87214 -80.57090 23293 ft 423 kts 169°
2026-04-22 20:06 27.84394 -80.56248 23259 ft 421 kts 169°
2026-04-22 20:06 27.81546 -80.55397 23218 ft 423 kts 169°
2026-04-22 20:07 27.78701 -80.54549 23235 ft 423 kts 169°
2026-04-22 20:07 27.75855 -80.53700 23226 ft 424 kts 169°
2026-04-22 20:07 27.73003 -80.52850 23223 ft 424 kts 169°
2026-04-22 20:07 27.70148 -80.51999 23231 ft 424 kts 169°
2026-04-22 20:08 27.67297 -80.51150 23218 ft 424 kts 169°
2026-04-22 20:08 27.64482 -80.50123 23237 ft 427 kts 163°
2026-04-22 20:08 27.61696 -80.48980 23232 ft 426 kts 164°
2026-04-22 20:08 27.58926 -80.47870 23235 ft 426 kts 165°
2026-04-22 20:09 27.56137 -80.46765 23230 ft 426 kts 165°
2026-04-22 20:09 27.53333 -80.45661 23206 ft 426 kts 165°
2026-04-22 20:09 27.50537 -80.44562 23214 ft 426 kts 165°
2026-04-22 20:09 27.47737 -80.43462 23205 ft 426 kts 165°
2026-04-22 20:10 27.44934 -80.42362 23204 ft 426 kts 165°
2026-04-22 20:10 27.42136 -80.41265 23203 ft 426 kts 165°
2026-04-22 20:10 27.40277 -80.40536 23209 ft 426 kts 165°
2026-04-22 20:10 27.37469 -80.39436 23213 ft 427 kts 165°
2026-04-22 20:11 27.34668 -80.38339 23214 ft 427 kts 165°
2026-04-22 20:11 27.31860 -80.37239 23207 ft 426 kts 165°
2026-04-22 20:11 27.29060 -80.36144 23209 ft 426 kts 165°
2026-04-22 20:11 27.26258 -80.35048 23200 ft 426 kts 165°
2026-04-22 20:12 27.23450 -80.33951 23203 ft 426 kts 165°
2026-04-22 20:12 27.20649 -80.32860 23201 ft 427 kts 165°
2026-04-22 20:12 27.17842 -80.31768 23201 ft 427 kts 165°
2026-04-22 20:12 27.15033 -80.30676 23202 ft 426 kts 165°
2026-04-22 20:13 27.12225 -80.29584 23199 ft 427 kts 165°
2026-04-22 20:13 27.09416 -80.28493 23206 ft 427 kts 165°
2026-04-22 20:13 27.06609 -80.27403 23201 ft 427 kts 165°
2026-04-22 20:13 27.03845 -80.26331 23202 ft 427 kts 165°
2026-04-22 20:14 27.01039 -80.25242 23201 ft 427 kts 165°
2026-04-22 20:14 26.98233 -80.24155 23203 ft 426 kts 165°
2026-04-22 20:14 26.95427 -80.23068 23205 ft 426 kts 165°
2026-04-22 20:14 26.92620 -80.21981 23205 ft 424 kts 165°
2026-04-22 20:15 26.89857 -80.20911 23211 ft 416 kts 165°
2026-04-22 20:15 26.87126 -80.19856 23211 ft 412 kts 165°
2026-04-22 20:15 26.84409 -80.18845 23203 ft 411 kts 166°
2026-04-22 20:15 26.81688 -80.17835 23203 ft 411 kts 166°
2026-04-22 20:16 26.78975 -80.16826 23202 ft 411 kts 166°
2026-04-22 20:16 26.76260 -80.15816 23204 ft 411 kts 166°
2026-04-22 20:16 26.73545 -80.14806 23209 ft 411 kts 166°
2026-04-22 20:16 26.70818 -80.13852 23195 ft 408 kts 171°
2026-04-22 20:17 26.68079 -80.13126 22898 ft 402 kts 171°
2026-04-22 20:17 26.65407 -80.12395 22131 ft 400 kts 170°
2026-04-22 20:17 26.62718 -80.11645 21334 ft 395 kts 170°
2026-04-22 20:17 26.60068 -80.10916 20567 ft 389 kts 171°
2026-04-22 20:18 26.57443 -80.10265 19788 ft 384 kts 171°
2026-04-22 20:18 26.54850 -80.09618 19059 ft 379 kts 171°
2026-04-22 20:18 26.52284 -80.08974 18303 ft 375 kts 171°
2026-04-22 20:18 26.49759 -80.08339 17494 ft 370 kts 170°
2026-04-22 20:19 26.47264 -80.07712 16695 ft 365 kts 170°
2026-04-22 20:19 26.44793 -80.07155 15913 ft 360 kts 172°
2026-04-22 20:19 26.42344 -80.06632 15186 ft 356 kts 172°
2026-04-22 20:19 26.39920 -80.06103 14413 ft 353 kts 170°
2026-04-22 20:20 26.37544 -80.05467 13629 ft 350 kts 168°
2026-04-22 20:20 26.35190 -80.04830 12859 ft 346 kts 168°
2026-04-22 20:20 26.32868 -80.04207 12108 ft 341 kts 168°
2026-04-22 20:20 26.30605 -80.03586 11373 ft 337 kts 167°
2026-04-22 20:21 26.28353 -80.02967 10902 ft 324 kts 167°
2026-04-22 20:21 26.26261 -80.02409 11013 ft 300 kts 171°
2026-04-22 20:21 26.24206 -80.02440 11001 ft 295 kts 194°
2026-04-22 20:21 26.22193 -80.02934 11000 ft 296 kts 193°
2026-04-22 20:22 26.20169 -80.03386 11011 ft 297 kts 193°
2026-04-22 20:22 26.18145 -80.03843 11010 ft 297 kts 193°
2026-04-22 20:22 26.16123 -80.04304 11011 ft 297 kts 193°
2026-04-22 20:22 26.14089 -80.04767 11000 ft 297 kts 193°
2026-04-22 20:23 26.12067 -80.05229 10996 ft 297 kts 193°
2026-04-22 20:23 26.10041 -80.05691 10997 ft 297 kts 193°
2026-04-22 20:23 26.08701 -80.05997 10998 ft 297 kts 194°
2026-04-22 20:24 26.06928 -80.06410 10970 ft 296 kts 195°
2026-04-22 20:24 26.04914 -80.06936 10737 ft 297 kts 195°
2026-04-22 20:24 26.02914 -80.07457 10503 ft 295 kts 195°
2026-04-22 20:24 26.00930 -80.07971 10275 ft 290 kts 195°
2026-04-22 20:25 25.98987 -80.08473 10045 ft 283 kts 194°
2026-04-22 20:25 25.97128 -80.08953 9790 ft 277 kts 194°
2026-04-22 20:25 25.95251 -80.09437 9542 ft 277 kts 194°
2026-04-22 20:25 25.93372 -80.09940 9297 ft 277 kts 198°
2026-04-22 20:26 25.91718 -80.10969 9024 ft 273 kts 224°
2026-04-22 20:26 25.90444 -80.12535 8835 ft 273 kts 228°
2026-04-22 20:26 25.89169 -80.14075 8616 ft 272 kts 228°
2026-04-22 20:26 25.88170 -80.15859 8336 ft 272 kts 253°
2026-04-22 20:27 25.87952 -80.17928 8119 ft 270 kts 269°
2026-04-22 20:27 25.87883 -80.19978 7878 ft 261 kts 266°
2026-04-22 20:27 25.87796 -80.21988 7395 ft 259 kts 266°
2026-04-22 20:27 25.87720 -80.23980 6938 ft 256 kts 266°
2026-04-22 20:28 25.87651 -80.25923 6500 ft 254 kts 266°
2026-04-22 20:28 25.87589 -80.27902 6044 ft 251 kts 269°
2026-04-22 20:28 25.87913 -80.29731 5692 ft 244 kts 297°
2026-04-22 20:28 25.88724 -80.31348 5458 ft 237 kts 298°
2026-04-22 20:29 25.89498 -80.32980 5248 ft 241 kts 299°
2026-04-22 20:29 25.90290 -80.34632 5021 ft 243 kts 300°
2026-04-22 20:29 25.91086 -80.36278 4762 ft 243 kts 300°
2026-04-22 20:29 25.91891 -80.37937 4503 ft 242 kts 300°
2026-04-22 20:30 25.92688 -80.39579 4387 ft 241 kts 300°
2026-04-22 20:30 25.93466 -80.41249 4186 ft 246 kts 294°
2026-04-22 20:30 25.93731 -80.43111 3854 ft 250 kts 268°
2026-04-22 20:30 25.93698 -80.45037 3597 ft 249 kts 270°
2026-04-22 20:31 25.93461 -80.46950 3280 ft 247 kts 246°
2026-04-22 20:31 25.92480 -80.48443 3023 ft 235 kts 213°
2026-04-22 20:31 25.91076 -80.49077 2969 ft 210 kts 179°
2026-04-22 20:31 25.89729 -80.48914 3045 ft 184 kts 162°
2026-04-22 20:32 25.88572 -80.48409 3028 ft 177 kts 137°
2026-04-22 20:32 25.87964 -80.47331 2952 ft 162 kts 98°
2026-04-22 20:32 25.87798 -80.46089 3025 ft 165 kts 103°
2026-04-22 20:32 25.87382 -80.44893 2883 ft 167 kts 114°
2026-04-22 20:33 25.86831 -80.43768 2690 ft 165 kts 117°
2026-04-22 20:33 25.86269 -80.42663 2498 ft 160 kts 117°
2026-04-22 20:33 25.85733 -80.41608 2317 ft 154 kts 117°
2026-04-22 20:33 25.85204 -80.40572 2110 ft 154 kts 117°
2026-04-22 20:34 25.84688 -80.39563 1911 ft 142 kts 116°
2026-04-22 20:34 25.84225 -80.38657 1748 ft 131 kts 115°
2026-04-22 20:34 25.83785 -80.37792 1571 ft 129 kts 115°
2026-04-22 20:34 25.83347 -80.36929 1405 ft 128 kts 115°
2026-04-22 20:35 25.82909 -80.36070 1229 ft 128 kts 115°
2026-04-22 20:35 25.82470 -80.35211 1054 ft 127 kts 114°
2026-04-22 20:35 25.82036 -80.34359 886 ft 127 kts 114°
2026-04-22 20:35 25.81596 -80.33499 719 ft 128 kts 114°
2026-04-22 20:36 25.81165 -80.32669 535 ft 123 kts 114°
2026-04-22 20:36 25.80725 -80.31858 361 ft 123 kts 114°
2026-04-22 20:36 25.80317 -80.31000 211 ft 127 kts 115°
2026-04-22 20:36 25.79882 -80.30139 45 ft 125 kts 119°
2026-04-22 20:37 25.79504 -80.29398 18 ft 85 kts 120°
2026-04-22 20:37 25.79309 -80.29021 16 ft 34 kts 119°
2026-04-22 20:37 25.79215 -80.28828 16 ft 22 kts 110°
2026-04-22 20:37 25.79201 -80.28710 16 ft 11 kts 86°
2026-04-22 20:38 25.79210 -80.28672 17 ft 5 kts 68°
2026-04-22 20:38 25.79232 -80.28633 17 ft 7 kts 47°
2026-04-22 20:38 25.79273 -80.28602 17 ft 4 kts 28°
2026-04-22 20:39 25.79278 -80.28597 17 ft 2 kts 40°
2026-04-22 20:39 25.79288 -80.28575 17 ft 4 kts 81°
2026-04-22 20:39 25.79280 -80.28532 17 ft 7 kts 114°
2026-04-22 20:39 25.79253 -80.28478 17 ft 7 kts 119°
2026-04-22 20:40 25.79223 -80.28424 17 ft 9 kts 137°
2026-04-22 20:40 25.79155 -80.28421 17 ft 12 kts 194°
2026-04-22 20:40 25.79089 -80.28374 19 ft 13 kts 120°
2026-04-22 20:40 25.79040 -80.28278 18 ft 15 kts 118°
2026-04-22 20:41 25.78988 -80.28176 18 ft 11 kts 112°
2026-04-22 20:41 25.78986 -80.28079 20 ft 14 kts 83°
2026-04-22 20:41 25.78961 -80.27975 20 ft 15 kts 120°
2026-04-22 20:41 25.78938 -80.27916 18 ft 9 kts 90°
2026-04-22 20:42 25.78973 -80.27884 18 ft 7 kts 341°
2026-04-22 20:42 25.79024 -80.27894 19 ft 4 kts 355°
2026-04-22 20:42 25.79028 -80.27894 18 ft 0 kts 356°